EW5580 Weather Reports


Display with metric or nautical units.
time (UTC)temp
F
wind
direction
speed
MPH
gust
MPH
rain 1hr
in
rain 24hr
in
rain mn
in
humidity
%
barometer
mb
20260503013036 49 290 0.0 0.0 0.00 0.04 0.04 92 1009.2
20260503011537 49 290 0.0 0.0 0.00 0.04 0.04 92 1009.1
20260503010036 49 290 0.0 0.0 0.00 0.04 0.04 91 1009.0
20260503004541 49 290 0.0 0.0 0.00 0.04 0.04 91 1008.8
20260503003049 50 290 0.0 0.0 0.00 0.04 0.04 90 1008.8
20260503001536 50 290 0.0 0.0 0.00 0.04 0.04 89 1008.8
20260503000034 50 290 0.0 0.0 0.00 0.04 0.04 89 1008.8
20260502234532 50 290 0.0 0.0 0.00 0.04 0.04 88 1008.7
20260502233032 51 290 0.0 0.0 0.00 0.04 0.04 88 1008.7
20260502231532 51 290 0.0 0.0 0.00 0.04 0.04 88 1008.7
20260502230031 51 290 0.0 0.0 0.00 0.04 0.04 88 1008.7
20260502224535 51 290 0.0 0.0 0.00 0.04 0.04 87 1008.5
20260502223031 51 290 0.0 2.0 0.00 0.04 0.04 86 1008.7
20260502221531 51 291 1.0 5.0 0.00 0.04 0.04 84 1008.8
20260502220034 52 313 1.0 3.0 0.00 0.04 0.04 83 1008.8
20260502214528 53 288 1.0 7.0 0.00 0.04 0.04 81 1008.7
20260502213036 54 248 3.0 7.0 0.00 0.04 0.04 79 1008.7
20260502211528 55 228 1.0 5.0 0.00 0.04 0.04 76 1008.5
20260502210027 56 360 0.0 3.0 0.00 0.04 0.04 76 1008.4
20260502204534 55 360 1.0 5.0 0.00 0.04 0.04 75 1008.4
20260502203028 55 137 0.0 8.0 0.00 0.04 0.04 75 1008.6
20260502201526 55 360 2.0 9.0 0.00 0.04 0.04 73 1008.7
20260502200040 56 360 1.0 8.0 0.00 0.04 0.04 73 1008.6
20260502194520 55 360 1.0 5.0 0.01 0.04 0.04 73 1008.8
20260502193023 55 94 2.0 5.0 0.01 0.04 0.04 77 1009.0
20260502191517 55 360 2.0 8.0 0.01 0.04 0.04 82 1009.2
20260502190016 54 360 0.0 5.0 0.01 0.04 0.04 84 1009.4
20260502184520 54 360 3.0 6.0 0.00 0.03 0.03 83 1009.3
20260502183015 52 229 0.0 2.0 0.01 0.03 0.03 87 1009.2
20260502181519 52 276 0.0 3.0 0.01 0.03 0.03 87 1009.4
20260502163010 55 290 1.0 12.0 0.01 0.03 0.02 67 1009.9
20260502161510 55 271 0.0 2.0 0.00 0.02 0.01 69 1009.7
20260502151506 55 360 1.0 4.0 0.00 0.02 0.01 78 1010.5
20260502130103 50 258 0.0 3.0 0.01 0.02 0.01 85 1011.3
20260502123049 51 277 0.0 4.0 0.00 0.01 0.00 83 1011.4
20260502121557 51 269 0.0 3.0 0.00 0.01 0.00 84 1011.0
20260502114541 49 284 0.0 1.0 0.00 0.01 0.00 87 1010.5
20260502113054 48 360 0.0 0.0 0.00 0.01 0.00 89 1010.3
20260502111544 48 360 0.0 0.0 0.00 0.01 0.00 90 1010.5
20260502110042 47 360 0.0 0.0 0.00 0.01 0.00 91 1010.4
20260502104536 47 360 0.0 0.0 0.00 0.01 0.00 90 1010.2
20260502103058 47 360 0.0 0.0 0.00 0.01 0.00 91 1010.4
20260502101547 47 360 0.0 0.0 0.00 0.01 0.00 91 1010.1
20260502091530 47 360 0.0 1.0 0.00 0.01 0.00 89 1009.7
20260502071521 49 360 0.0 0.0 0.00 0.01 0.00 76 1010.0
20260502070020 50 360 0.0 0.0 0.00 0.01 0.00 76 1010.1
20260502064516 49 360 0.0 1.0 0.00 0.01 0.00 76 1010.1
20260502063016 48 360 0.0 3.0 0.00 0.01 0.00 78 1010.1
20260502061513 48 360 0.0 0.0 0.00 0.01 0.00 80 1009.9
20260502060011 48 360 0.0 0.0 0.00 0.01 0.00 79 1010.0
20260502054512 47 360 0.0 0.0 0.00 0.01 0.00 81 1010.1
20260502053008 47 360 0.0 0.0 0.00 0.01 0.00 78 1010.2
20260502051507 47 360 0.0 0.0 0.00 0.01 0.00 78 1010.1
20260502050006 47 360 0.0 0.0 0.00 0.01 0.00 78 1010.1
20260502044504 47 360 0.0 0.0 0.00 0.01 0.00 79 1010.1
20260502043003 46 360 0.0 0.0 0.00 0.01 0.00 79 1010.3
20260502041502 46 360 0.0 0.0 0.00 0.01 0.00 78 1010.2
20260502034559 46 360 0.0 0.0 0.00 0.01 0.01 79 1010.2
20260502033057 46 360 0.0 0.0 0.00 0.01 0.01 78 1010.3
20260502031556 46 360 0.0 0.0 0.00 0.01 0.01 77 1010.2
20260502030105 46 360 0.0 0.0 0.00 0.01 0.01 77 1010.0
20260502024555 45 360 0.0 0.0 0.00 0.01 0.01 76 1010.1
20260502023059 45 360 0.0 0.0 0.00 0.01 0.01 73 1010.0
20260502021555 46 360 0.0 0.0 0.00 0.01 0.01 72 1009.8
20260502020049 46 360 0.0 0.0 0.00 0.01 0.01 70 1009.8
20260502014547 47 360 0.0 0.0 0.00 0.01 0.01 67 1009.8